TimeCDT,TemperatureF,Dew PointF,Humidity,Sea Level PressureIn,VisibilityMPH,Wind Direction,Wind SpeedMPH,Gust SpeedMPH,PrecipitationIn,Events,Conditions,WindDirDegrees,DateUTC
12:15 AM,64.6,63.5,96,29.91,10.0,Calm,Calm,-,N/A,,Mostly Cloudy,0,2013-09-21 05:15:00
12:35 AM,64.8,63.5,96,29.91,10.0,Calm,Calm,-,N/A,,Scattered Clouds,0,2013-09-21 05:35:00
12:55 AM,64.8,63.5,96,29.90,10.0,Calm,Calm,-,N/A,,Mostly Cloudy,0,2013-09-21 05:55:00
1:15 AM,65.3,63.7,94,29.89,10.0,Calm,Calm,-,N/A,,Overcast,0,2013-09-21 06:15:00
1:35 AM,64.9,63.7,96,29.88,10.0,Calm,Calm,-,N/A,,Mostly Cloudy,0,2013-09-21 06:35:00
1:55 AM,65.1,64.0,96,29.87,7.0,Calm,Calm,-,N/A,,Scattered Clouds,0,2013-09-21 06:55:00
2:15 AM,65.5,64.4,96,29.86,7.0,Calm,Calm,-,N/A,Rain,Light Rain,0,2013-09-21 07:15:00
2:35 AM,65.5,64.4,96,29.85,7.0,Calm,Calm,-,N/A,,Clear,0,2013-09-21 07:35:00
2:55 AM,66.2,64.6,94,29.84,10.0,Calm,Calm,-,N/A,,Light Drizzle,0,2013-09-21 07:55:00
3:15 AM,65.5,64.8,98,29.82,7.0,Calm,Calm,-,N/A,,Mostly Cloudy,0,2013-09-21 08:15:00
3:35 AM,65.7,64.8,97,29.82,7.0,Calm,Calm,-,N/A,,Light Drizzle,0,2013-09-21 08:35:00
3:55 AM,65.8,65.3,98,29.81,7.0,Calm,Calm,-,N/A,Rain,Light Rain,0,2013-09-21 08:55:00
4:15 AM,66.2,65.5,98,29.80,7.0,Calm,Calm,-,N/A,,Scattered Clouds,0,2013-09-21 09:15:00
4:35 AM,66.9,65.5,95,29.80,10.0,South,4.6,-,N/A,Rain,Light Rain,170,2013-09-21 09:35:00
4:55 AM,69.3,64.8,86,29.79,10.0,South,5.8,-,N/A,Rain,Light Rain,180,2013-09-21 09:55:00
5:15 AM,69.3,64.8,86,29.79,10.0,South,5.8,-,0.01,Rain,Light Rain,180,2013-09-21 10:15:00
5:35 AM,68.5,64.9,88,29.78,10.0,South,4.6,-,0.02,Rain,Light Rain,170,2013-09-21 10:35:00
5:55 AM,68.2,65.3,90,29.78,7.0,SSW,5.8,-,0.02,Rain,Light Rain,200,2013-09-21 10:55:00
6:15 AM,68.4,65.3,90,29.78,10.0,South,5.8,-,N/A,Rain,Rain,170,2013-09-21 11:15:00
6:35 AM,68.0,65.5,92,29.77,7.0,South,5.8,-,0.01,Rain,Light Rain,190,2013-09-21 11:35:00
6:55 AM,67.6,65.3,92,29.78,4.0,South,8.1,-,0.04,Rain,Rain,190,2013-09-21 11:55:00
7:15 AM,67.8,65.5,92,29.78,4.0,SSW,6.9,-,0.04,Rain,Rain,200,2013-09-21 12:15:00
7:35 AM,68.2,65.5,91,29.79,2.5,SSW,6.9,-,0.14,Rain,Heavy Rain,200,2013-09-21 12:35:00
7:55 AM,68.2,65.5,91,29.79,1.5,South,8.1,16.1,0.38,Rain,Heavy Rain,190,2013-09-21 12:55:00
8:15 AM,67.5,66.6,97,29.80,1.8,Calm,Calm,-,0.18,Rain,Heavy Rain,0,2013-09-21 13:15:00
8:35 AM,66.4,64.6,94,29.82,3.0,Calm,Calm,-,0.31,Rain,Rain,0,2013-09-21 13:35:00
8:55 AM,65.5,64.4,96,29.83,2.0,Calm,Calm,-,0.38,Rain,Rain,0,2013-09-21 13:55:00
9:15 AM,65.5,64.4,96,29.83,5.0,Calm,Calm,-,0.03,Rain,Rain,0,2013-09-21 14:15:00
9:35 AM,65.5,64.4,96,29.83,5.0,Calm,Calm,-,0.06,Rain,Light Rain,0,2013-09-21 14:35:00
9:55 AM,65.5,64.4,96,29.82,7.0,Calm,Calm,-,0.09,Rain,Light Rain,0,2013-09-21 14:55:00
10:15 AM,65.3,64.4,97,29.81,7.0,Calm,Calm,-,0.02,Rain,Rain,0,2013-09-21 15:15:00
10:35 AM,65.7,65.3,99,29.81,5.0,Calm,Calm,-,0.06,Rain,Rain,0,2013-09-21 15:35:00
10:55 AM,65.7,64.4,96,29.82,7.0,Calm,Calm,-,0.08,Rain,Light Rain,0,2013-09-21 15:55:00
11:15 AM,65.5,64.4,96,29.82,3.0,Calm,Calm,-,0.05,Rain,Rain,0,2013-09-21 16:15:00
11:35 AM,65.5,64.4,96,29.82,4.0,Calm,Calm,-,0.09,Rain,Rain,0,2013-09-21 16:35:00
11:55 AM,65.7,65.1,98,29.82,4.0,Calm,Calm,-,0.12,Rain,Light Rain,0,2013-09-21 16:55:00
12:15 PM,66.2,64.8,95,29.83,10.0,Calm,Calm,-,N/A,,Overcast,0,2013-09-21 17:15:00
12:35 PM,66.9,63.5,89,29.82,10.0,Calm,Calm,-,N/A,,Overcast,0,2013-09-21 17:35:00
12:55 PM,67.1,63.5,88,29.82,10.0,Calm,Calm,-,N/A,,Overcast,0,2013-09-21 17:55:00
1:15 PM,67.5,64.0,89,29.81,10.0,Calm,Calm,-,N/A,,Overcast,0,2013-09-21 18:15:00
1:35 PM,68.0,64.2,88,29.80,10.0,Calm,Calm,-,N/A,,Overcast,0,2013-09-21 18:35:00
1:55 PM,68.0,63.7,86,29.80,10.0,Calm,Calm,-,N/A,,Overcast,0,2013-09-21 18:55:00
2:15 PM,68.0,63.3,85,29.80,10.0,Calm,Calm,-,N/A,,Overcast,0,2013-09-21 19:15:00
2:35 PM,68.0,63.5,85,29.80,10.0,Calm,Calm,-,N/A,,Overcast,0,2013-09-21 19:35:00
2:55 PM,68.4,63.5,84,29.80,10.0,Calm,Calm,-,N/A,,Overcast,0,2013-09-21 19:55:00
3:15 PM,68.4,63.9,85,29.80,10.0,NNE,3.5,-,N/A,,Overcast,20,2013-09-21 20:15:00
3:35 PM,68.5,63.1,83,29.79,10.0,Calm,Calm,-,N/A,,Overcast,0,2013-09-21 20:35:00
3:55 PM,67.8,61.9,81,29.79,7.0,Calm,Calm,-,N/A,,Drizzle,0,2013-09-21 20:55:00
4:15 PM,66.2,63.0,89,29.79,2.5,Calm,Calm,-,0.03,Rain,Light Rain,0,2013-09-21 21:15:00
4:35 PM,67.1,64.0,90,29.80,10.0,North,3.5,-,0.03,,Overcast,10,2013-09-21 21:35:00
4:55 PM,66.6,63.7,90,29.80,10.0,NNE,3.5,-,0.03,,Overcast,20,2013-09-21 21:55:00
5:15 PM,65.7,63.7,93,29.81,7.0,North,3.5,-,N/A,Rain,Rain,360,2013-09-21 22:15:00
5:35 PM,64.6,59.9,85,29.82,10.0,NNW,5.8,-,0.01,,Overcast,330,2013-09-21 22:35:00
5:55 PM,65.3,58.1,77,29.82,10.0,Calm,Calm,-,0.01,,Overcast,0,2013-09-21 22:55:00
6:15 PM,64.6,59.4,83,29.83,10.0,NE,5.8,-,N/A,,Mostly Cloudy,50,2013-09-21 23:15:00
6:35 PM,63.7,59.4,86,29.83,10.0,ENE,4.6,-,N/A,,Scattered Clouds,70,2013-09-21 23:35:00
6:55 PM,62.1,60.1,93,29.83,10.0,Calm,Calm,-,N/A,,Scattered Clouds,0,2013-09-21 23:55:00
7:15 PM,61.2,60.3,97,29.84,10.0,Calm,Calm,-,N/A,,Mostly Cloudy,0,2013-09-22 00:15:00
7:35 PM,61.0,59.5,95,29.85,10.0,Calm,Calm,-,N/A,,Scattered Clouds,0,2013-09-22 00:35:00
7:55 PM,59.7,59.4,99,29.85,10.0,Calm,Calm,-,N/A,,Clear,0,2013-09-22 00:55:00
8:15 PM,59.0,58.5,98,29.85,10.0,Calm,Calm,-,N/A,,Clear,0,2013-09-22 01:15:00
8:35 PM,58.1,57.7,99,29.86,10.0,Calm,Calm,-,N/A,,Clear,0,2013-09-22 01:35:00
8:55 PM,57.7,57.4,99,29.87,10.0,Calm,Calm,-,N/A,,Clear,0,2013-09-22 01:55:00
9:15 PM,57.2,57.0,99,29.87,7.0,Calm,Calm,-,N/A,,Clear,0,2013-09-22 02:15:00
9:35 PM,56.5,56.5,100,29.87,7.0,Calm,Calm,-,N/A,,Clear,0,2013-09-22 02:35:00
9:55 PM,55.9,55.9,100,29.87,5.0,Calm,Calm,-,N/A,,Clear,0,2013-09-22 02:55:00
10:15 PM,55.6,55.6,100,29.87,5.0,Calm,Calm,-,N/A,,Scattered Clouds,0,2013-09-22 03:15:00
10:35 PM,55.0,55.0,100,29.87,4.0,Calm,Calm,-,N/A,,Scattered Clouds,0,2013-09-22 03:35:00
10:55 PM,54.7,54.7,100,29.87,1.0,Calm,Calm,-,N/A,,Mostly Cloudy,0,2013-09-22 03:55:00
11:15 PM,54.5,54.5,100,29.87,4.0,Calm,Calm,-,N/A,,Scattered Clouds,0,2013-09-22 04:15:00
11:35 PM,53.8,53.8,100,29.87,4.0,Calm,Calm,-,N/A,,Clear,0,2013-09-22 04:35:00
11:55 PM,53.8,53.8,100,29.87,0.8,Calm,Calm,-,N/A,,Overcast,0,2013-09-22 04:55:00